Погода в Майском

Россия / Пермский край     58°06′16″N   55°34′23″E
темп.,
°C
ветер,
м/с
пор.,
м/с
влажн.,
%
обл.,
%
осадки,
мм/ч
давл.,
гПа
погр.,
м
10 апреля, сб
сб1023:00+1ююз1499100 0.2 1028107
02:00+1сз11100100 1.3 102933
05:00+1всв12100100 1.9 103094
08:00+1всв1599100 0.8 1031253
11:00+2св2499100 1.4 1032266
14:00+3в249798 0.0 1033368
17:00+4в2597100 0.0 1032350
20:00+2всв26100100 1.1 1031145
11 апреля, вс
вс1123:00+2вюв14100100 1.2 1029110
02:00+2ю14100100 0.1 1028117
05:00+3ююв26100100 0.9 1028153
08:00+4ю2798100 4.0 1027217
11:00+5ююз31296100 5.9 1028506
14:00+5зюз2798100 0.4 1029226
17:00+3зюз13100100 4.1 103083
20:00+2з11100100 0.1 103211
12 апреля, пн
пн1223:00+2зюз11100100 0.1 103420
02:00+1сз1297100 0.0 103576
05:00+1зсз1199100 0.0 1037107
08:00+1ссз0197100 0.0 103887
11:00+6с1180100 0.0 1038285
14:00+10с1166100 0.0 1038811
17:00+10с1161100 0.0 10381051
20:00+7ссв1181100 0.0 103810
13 апреля, вт
вт1323:00+4всв11895 0.0 103810
02:00+3юв1191100 0.0 103810
05:00+3всв1192100 0.0 103810
08:00+4в1190100 0.0 103743
11:00+9юв127068 0.0 1036368
14:00+13ю235184 0.0 1034741
17:00+13ююз2457100 0.0 1033551
20:00+10ю228564 0.0 103117
14 апреля, ср
ср1423:00+8ююз229151 0.0 103125
02:00+7ююз229382 0.0 103037
05:00+6юз2293100 0.0 102926
08:00+7юз268767 0.0 1029163
11:00+12юз365866 0.0 1028537
14:00+15зюз46455 0.0 10261255
17:00+16з35455 0.0 10261515
20:00+12з226683 0.0 102510